Overview Statistics Trail Chart Weather Telemetry Raw packets
 

This is the latest recevied weather packets stored in our database for station/object SV4JYD-14. If no packets are shown the sender has not sent any weather packets the latest 10 day(s).

<< 18 19 20 21 22 23 24 >>
Time Temp. Humidity Pressure Rain* Wind** Luminosity Snow
1777593096 13.33° C 77% 1014 hPa 0 mm - - -
1777592195 13.33° C 77% 1014 hPa 0 mm - - -
1777591295 13.89° C 78% 1014 hPa 0 mm - - -
1777590395 13.89° C 77% 1014 hPa 0 mm - - -
1777589495 14.44° C 74% 1014 hPa 0 mm - - -
1777588594 15° C 71% 1014 hPa 0 mm - - -
1777587694 16.11° C 70% 1014 hPa 0 mm - - -
1777586794 16.11° C 69% 1014 hPa 0 mm - - -
1777585894 16.67° C 68% 1014 hPa 0 mm - - -
1777584993 16.67° C 67% 1014 hPa 0 mm - - -
1777584099 16.67° C 65% 1014 hPa 0 mm - - -
1777583193 16.67° C 64% 1014 hPa 0 mm - - -
1777582293 16.67° C 65% 1014 hPa 0 mm - - -
1777581392 16.67° C 67% 1014 hPa 0 mm - - -
1777580492 17.22° C 66% 1013 hPa 0 mm - - -
1777579592 17.22° C 66% 1013 hPa 0 mm - - -
1777578692 17.22° C 64% 1013 hPa 0 mm - - -
1777577791 17.22° C 64% 1013 hPa 0 mm - - -
1777576891 17.22° C 63% 1013 hPa 0 mm - - -
1777575991 17.22° C 62% 1013 hPa 0 mm - - -
1777575091 17.78° C 61% 1013 hPa 0 mm - - -
1777574190 18.33° C 60% 1013 hPa 0 mm - - -
1777573290 18.89° C 59% 1013 hPa 0 mm - - -
1777572390 18.89° C 59% 1013 hPa 0 mm - - -
1777571490 19.44° C 60% 1013 hPa 0 mm - - -

* Rain latest hour (hover to see other rain measurements)
** Current wind speed in m/s (hover to see current wind gust speed)